Bloomington, IN

2:55 AM EST on November 13, 2019 (GMT -0500)
Monroe County

Weather History for KBMG - October, 2019

Change the Weather History Date:

Monday, October 21, 2019

  Actual Average Record
Temperature  
Mean Temperature 60 °F 53 °F  
Max Temperature 68 °F 66 °F 78 °F (2007)
Min Temperature 53 °F 41 °F 27 °F (2018)
Degree Days  
Heating Degree Days 4 12  
Month to date heating degree days 162 198  
Since 1 July heating degree days 164 283  
Cooling Degree Days 0 0  
Month to date cooling degree days 37 11  
Year to date cooling degree days 1239 924  
Growing Degree Days 10 (Base 50)    
Moisture  
Dew Point 57 °F    
Average Humidity 84    
Maximum Humidity 97    
Minimum Humidity 73    
Precipitation  
Precipitation 0.87 in 0.12 in 0.44 in (2005)
Month to date precipitation 1.82 2.44  
Year to date precipitation 39.25 38.98  
Sea Level Pressure  
Sea Level Pressure 29.70 in    
Wind  
Wind Speed 9 mph ()    
Max Wind Speed 22 mph    
Max Gust Speed 33 mph    
Visibility 7.6 miles    
Events Rain , Thunderstorm    
T = Trace of Precipitation, MM = Missing Value Source: Averaged Metar Reports

Daily Weather History Graph

Daily Weather History Graph

Search for Another Location

Airport or City:

Astronomy

Oct. 21, 2019 Rise Set
Actual Time 8:02 AM EDT 6:59 PM EDT
Civil Twilight 7:34 AM EDT 7:26 PM EDT
Nautical Twilight 7:03 AM EDT 7:57 PM EDT
Astronomical Twilight 6:32 AM EDT 8:28 PM EDT
Moon 12:11 AM EDT (10/21) 3:18 PM EDT (10/21)
Length of Visible Light 11h 51m
Length of Day
10h 57m
Waning Gibbous, 48% of the Moon is Illuminated
Oct 21
Waning Gibbous
Oct 27
New
Nov 4
First Quarter
Nov 12
Full
Nov 19
Last Quarter

Hourly Weather History & Observations

Time (EDT) Temp. Dew Point Humidity Pressure Visibility Wind Dir Wind Speed Gust Speed Precip Events Conditions
12:53 AM 54.0 °F 51.1 °F 90% 29.88 in 10.0 mi Calm Calm - N/A   Partly Cloudy
1:53 AM 55.0 °F 51.1 °F 86% 29.85 in 10.0 mi SE 3.5 mph - N/A   Clear
2:53 AM 57.0 °F 52.0 °F 83% 29.81 in 10.0 mi SE 5.8 mph - N/A   Clear
3:53 AM 55.9 °F 51.1 °F 84% 29.82 in 10.0 mi SSE 5.8 mph - N/A   Clear
4:53 AM 57.0 °F 52.0 °F 83% 29.80 in 10.0 mi SE 8.1 mph - N/A   Clear
5:53 AM 57.0 °F 53.1 °F 87% 29.77 in 10.0 mi ESE 10.4 mph - N/A   Clear
6:53 AM 57.9 °F 53.1 °F 84% 29.74 in 10.0 mi ESE 9.2 mph - N/A   Clear
7:53 AM 60.1 °F 55.0 °F 83% 29.71 in 10.0 mi SE 15.0 mph - 0.00 in Rain Light Rain
8:09 AM 60.1 °F 55.0 °F 83% 29.72 in 8.0 mi SSE 16.1 mph 25.3 mph 0.01 in Rain , Thunderstorm Light Rain
8:24 AM 59.0 °F 55.9 °F 90% 29.73 in 7.0 mi SE 13.8 mph 23.0 mph 0.04 in Rain , Thunderstorm Light Thunderstorms and Rain
8:42 AM 59.0 °F 55.9 °F 90% 29.69 in 4.0 mi ESE 15.0 mph 24.2 mph 0.11 in Rain , Thunderstorm Heavy Rain
8:49 AM 59.0 °F 55.4 °F 88% 29.71 in 4.0 mi SE 11.5 mph - 0.14 in Rain , Thunderstorm Heavy Thunderstorms and Rain
8:53 AM 59.0 °F 55.9 °F 90% 29.73 in 3.0 mi SSE 13.8 mph 21.9 mph 0.19 in Rain , Thunderstorm Heavy Thunderstorms and Rain
8:58 AM 59.0 °F 55.9 °F 90% 29.73 in 2.5 mi SSE 11.5 mph 21.9 mph 0.04 in Rain , Thunderstorm Heavy Thunderstorms and Rain
9:11 AM 60.1 °F 57.0 °F 90% 29.74 in 3.0 mi SSE 10.4 mph 23.0 mph 0.12 in Rain , Thunderstorm Heavy Thunderstorms and Rain
9:27 AM 60.1 °F 57.0 °F 90% 29.73 in 4.0 mi SSE 8.1 mph - 0.18 in Rain , Thunderstorm Thunderstorms and Rain
9:35 AM 60.1 °F 57.9 °F 93% 29.74 in 2.5 mi South 9.2 mph - 0.26 in Rain , Thunderstorm Heavy Thunderstorms and Rain
9:37 AM 60.1 °F 57.9 °F 93% 29.74 in 2.5 mi South 8.1 mph - 0.28 in Rain Heavy Rain
9:42 AM 61.0 °F 57.9 °F 90% 29.74 in 2.0 mi South 9.2 mph - 0.31 in Rain Heavy Rain
9:53 AM 61.0 °F 57.9 °F 90% 29.72 in 3.0 mi SSE 9.2 mph 18.4 mph 0.36 in Rain Rain
10:00 AM 61.0 °F 57.9 °F 90% 29.71 in 4.0 mi SSE 10.4 mph - 0.01 in Rain Light Rain
10:50 AM 60.8 °F 57.2 °F 88% 29.72 in 7.0 mi SSE 11.5 mph - 0.05 in Rain Light Rain
10:53 AM 60.1 °F 57.9 °F 93% 29.71 in 5.0 mi SSE 12.7 mph - 0.05 in Rain Rain
11:53 AM 61.0 °F 59.0 °F 93% 29.67 in 4.0 mi SSE 13.8 mph - 0.08 in Rain Rain
12:21 PM 61.0 °F 59.0 °F 93% 29.67 in 2.5 mi South 6.9 mph - 0.08 in Rain Heavy Rain
12:38 PM 62.1 °F 59.0 °F 90% 29.67 in 4.0 mi SSW 8.1 mph - 0.11 in Rain Light Rain
12:53 PM 64.0 °F 61.0 °F 90% 29.62 in 10.0 mi SE 18.4 mph 32.2 mph 0.11 in   Overcast
1:53 PM 64.9 °F 61.0 °F 87% 29.61 in 10.0 mi SSE 18.4 mph 26.5 mph 0.01 in   Overcast
2:14 PM 66.0 °F 61.0 °F 84% 29.62 in 10.0 mi South 13.8 mph 31.1 mph 0.00 in Rain Light Rain
2:48 PM 66.2 °F 60.8 °F 83% 29.63 in 10.0 mi South 11.5 mph 20.7 mph 0.00 in   Mostly Cloudy
2:53 PM 68.0 °F 61.0 °F 78% 29.62 in 10.0 mi SW 12.7 mph 19.6 mph 0.00 in   Mostly Cloudy
3:28 PM 68.0 °F 61.0 °F 78% 29.64 in 10.0 mi SSW 11.5 mph 20.7 mph N/A   Mostly Cloudy
3:53 PM 68.0 °F 61.0 °F 78% 29.62 in 10.0 mi South 13.8 mph 24.2 mph 0.00 in   Overcast
4:11 PM 66.9 °F 61.0 °F 81% 29.63 in 10.0 mi South 10.4 mph - N/A   Overcast
4:37 PM 66.9 °F 60.1 °F 79% 29.61 in 10.0 mi South 13.8 mph 27.6 mph N/A   Overcast
4:53 PM 66.0 °F 60.1 °F 81% 29.61 in 4.0 mi SSW 10.4 mph - 0.03 in Rain Light Rain
5:08 PM 64.9 °F 61.0 °F 87% 29.64 in 4.0 mi SSW 13.8 mph 19.6 mph 0.03 in Rain Light Rain
5:27 PM 64.9 °F 60.1 °F 84% 29.64 in 10.0 mi SSW 11.5 mph 18.4 mph 0.03 in   Scattered Clouds
5:53 PM 66.0 °F 59.0 °F 78% 29.63 in 10.0 mi SSW 15.0 mph 25.3 mph 0.03 in   Scattered Clouds
6:53 PM 64.9 °F 55.9 °F 73% 29.65 in 10.0 mi SSW 12.7 mph 20.7 mph N/A   Overcast
7:36 PM 64.9 °F 55.9 °F 73% 29.68 in 10.0 mi SSW 13.8 mph 24.2 mph N/A   Overcast
7:53 PM 64.0 °F 55.9 °F 75% 29.68 in 10.0 mi SSW 11.5 mph 24.2 mph N/A   Overcast
8:29 PM 64.0 °F 55.9 °F 75% 29.70 in 10.0 mi SSW 11.5 mph - N/A   Mostly Cloudy
8:53 PM 64.0 °F 55.9 °F 75% 29.70 in 10.0 mi SW 15.0 mph 26.5 mph N/A   Mostly Cloudy
9:10 PM 63.0 °F 55.9 °F 78% 29.71 in 10.0 mi SSW 10.4 mph 20.7 mph N/A   Mostly Cloudy
9:34 PM 63.0 °F 55.9 °F 78% 29.71 in 10.0 mi SW 10.4 mph 19.6 mph N/A   Scattered Clouds
9:53 PM 63.0 °F 55.0 °F 75% 29.70 in 10.0 mi SSW 10.4 mph 28.8 mph N/A   Clear
10:53 PM 62.1 °F 55.0 °F 78% 29.72 in 10.0 mi SSW 8.1 mph 19.6 mph N/A   Clear
11:53 PM 61.0 °F 55.0 °F 81% 29.74 in 10.0 mi SW 10.4 mph 21.9 mph N/A   Clear